Location: Karaa?a�
(36.7158°N, 30.4165°E)
Time: 01:00:37
(UTC+00:00)

Cosmos 2218 Rocket - Pass Details

Date: 09 April 2020
Orbit: 957 x 1005 km, 82.9° (Epoch: 24 May)

Event Time Altitude Azimuth Distance (km) Brightness Sun altitude
Rises 19:13:11 0° 348° (NNW) 3,668 7.7 -30.7°
Reaches altitude 10° 19:15:43 10° 345° (NNW) 2,724 7.0 -31.1°
Maximum altitude 19:21:48 58° 268° (W) 1,135 4.4 -32.0°
Enters shadow 19:22:19 56° 248° (WSW) 1,154 4.4 -32.1°
